Time,TemperatureF,DewpointF,PressureIn,WindDirection,WindDirectionDegrees,WindSpeedMPH,WindSpeedGustMPH,Humidity,HourlyPrecipIn,Conditions,Clouds,dailyrainin,SoftwareType,DateUTC
2013-01-08 00:25:00,31.0,28.0,30.39,SSE,151,1.0,3.0,89,0.00,,,0.00,weatherlink.com 1.10,2013-01-08 05:25:00,
2013-01-08 00:40:00,31.4,28.0,30.39,South,190,1.0,3.0,88,0.00,,,0.00,weatherlink.com 1.10,2013-01-08 05:40:00,
2013-01-08 00:55:00,31.9,29.0,30.39,WNW,283,1.0,5.0,88,0.00,,,0.00,weatherlink.com 1.10,2013-01-08 05:55:00,
2013-01-08 01:10:00,32.3,30.0,30.39,ENE,69,1.0,5.0,89,0.00,,,0.00,weatherlink.com 1.10,2013-01-08 06:10:00,
2013-01-08 01:25:00,32.8,30.0,30.39,East,86,1.0,5.0,89,0.00,,,0.00,weatherlink.com 1.10,2013-01-08 06:25:00,
2013-01-08 01:40:00,33.0,30.0,30.39,North,1,2.0,4.0,88,0.00,,,0.00,weatherlink.com 1.10,2013-01-08 06:40:00,
2013-01-08 01:55:00,33.4,30.0,30.39,SW,225,0.0,6.0,88,0.00,,,0.00,weatherlink.com 1.10,2013-01-08 06:55:00,
2013-01-08 02:10:00,33.5,31.0,30.39,SSE,165,3.0,8.0,89,0.00,,,0.00,weatherlink.com 1.10,2013-01-08 07:10:00,
2013-01-08 02:25:00,33.7,31.0,30.39,West,259,2.0,8.0,89,0.00,,,0.00,weatherlink.com 1.10,2013-01-08 07:25:00,
2013-01-08 02:40:00,33.9,31.0,30.38,SSW,198,1.0,4.0,90,0.00,,,0.00,weatherlink.com 1.10,2013-01-08 07:40:00,
2013-01-08 02:55:00,34.0,31.0,30.38,North,353,7.0,7.0,90,0.00,,,0.00,weatherlink.com 1.10,2013-01-08 07:55:00,
2013-01-08 03:10:00,34.1,32.0,30.37,NNW,333,2.0,5.0,90,0.00,,,0.00,weatherlink.com 1.10,2013-01-08 08:10:00,
2013-01-08 03:25:00,34.4,32.0,30.37,West,278,2.0,6.0,91,0.00,,,0.00,weatherlink.com 1.10,2013-01-08 08:25:00,
2013-01-08 03:40:00,35.1,33.0,30.37,SE,134,4.0,6.0,92,0.00,,,0.00,weatherlink.com 1.10,2013-01-08 08:40:00,
2013-01-08 03:55:00,35.5,33.0,30.36,West,259,1.0,7.0,92,0.00,,,0.00,weatherlink.com 1.10,2013-01-08 08:55:00,
2013-01-08 04:10:00,35.7,33.0,30.36,NNE,19,2.0,7.0,91,0.00,,,0.00,weatherlink.com 1.10,2013-01-08 09:10:00,
2013-01-08 04:25:00,35.8,34.0,30.36,SSE,152,3.0,5.0,91,0.00,,,0.00,weatherlink.com 1.10,2013-01-08 09:25:00,
2013-01-08 04:40:00,35.5,33.0,30.35,SW,225,1.0,4.0,92,0.00,,,0.00,weatherlink.com 1.10,2013-01-08 09:40:00,
2013-01-08 04:55:00,35.7,34.0,30.35,ESE,103,1.0,5.0,92,0.00,,,0.00,weatherlink.com 1.10,2013-01-08 09:55:00,
2013-01-08 05:10:00,35.8,34.0,30.36,SSE,156,5.0,8.0,92,0.00,,,0.00,weatherlink.com 1.10,2013-01-08 10:10:00,
2013-01-08 05:25:00,36.3,35.0,30.35,SE,134,2.0,6.0,93,0.00,,,0.00,weatherlink.com 1.10,2013-01-08 10:25:00,
2013-01-08 05:41:00,36.4,35.0,30.36,SE,143,2.0,8.0,93,0.00,,,0.00,weatherlink.com 1.10,2013-01-08 10:41:00,
2013-01-08 05:56:00,36.2,34.0,30.36,SE,134,1.0,4.0,92,0.00,,,0.00,weatherlink.com 1.10,2013-01-08 10:56:00,
2013-01-08 06:11:00,36.3,35.0,30.36,SSE,150,1.0,5.0,93,0.00,,,0.00,weatherlink.com 1.10,2013-01-08 11:11:00,
2013-01-08 06:26:00,36.8,35.0,30.36,West,271,4.0,7.0,93,0.00,,,0.00,weatherlink.com 1.10,2013-01-08 11:26:00,
2013-01-08 06:41:00,36.9,35.0,30.36,SSE,156,6.0,10.0,91,0.00,,,0.00,weatherlink.com 1.10,2013-01-08 11:41:00,
2013-01-08 06:56:00,37.1,35.0,30.36,SE,143,7.0,10.0,90,0.00,,,0.00,weatherlink.com 1.10,2013-01-08 11:56:00,
2013-01-08 07:11:00,37.6,35.0,30.36,East,98,2.0,10.0,89,0.00,,,0.00,weatherlink.com 1.10,2013-01-08 12:11:00,
2013-01-08 07:26:00,38.1,35.0,30.37,SE,126,8.0,11.0,87,0.00,,,0.00,weatherlink.com 1.10,2013-01-08 12:26:00,
2013-01-08 07:41:00,38.2,35.0,30.37,SSE,150,5.0,10.0,87,0.00,,,0.00,weatherlink.com 1.10,2013-01-08 12:41:00,
2013-01-08 07:56:00,37.9,35.0,30.37,SSE,156,4.0,9.0,88,0.00,,,0.00,weatherlink.com 1.10,2013-01-08 12:56:00,
2013-01-08 08:11:00,38.0,35.0,30.37,SSE,152,5.0,9.0,88,0.00,,,0.00,weatherlink.com 1.10,2013-01-08 13:11:00,
2013-01-08 08:26:00,39.8,36.0,30.38,SSE,158,7.0,12.0,87,0.00,,,0.00,weatherlink.com 1.10,2013-01-08 13:26:00,
2013-01-08 08:41:00,40.6,37.0,30.38,SSW,204,7.0,11.0,85,0.00,,,0.00,weatherlink.com 1.10,2013-01-08 13:41:00,
2013-01-08 08:56:00,40.9,36.0,30.38,South,169,8.0,14.0,84,0.00,,,0.00,weatherlink.com 1.10,2013-01-08 13:56:00,
2013-01-08 09:11:00,41.4,36.0,30.39,SSE,168,7.0,17.0,80,0.00,,,0.00,weatherlink.com 1.10,2013-01-08 14:11:00,
2013-01-08 09:26:00,41.7,35.0,30.38,South,186,11.0,17.0,78,0.00,,,0.00,weatherlink.com 1.10,2013-01-08 14:26:00,
2013-01-08 09:41:00,42.0,35.0,30.38,SE,146,14.0,21.0,77,0.00,,,0.00,weatherlink.com 1.10,2013-01-08 14:41:00,
2013-01-08 09:56:00,42.1,35.0,30.38,SSE,163,12.0,20.0,76,0.00,,,0.00,weatherlink.com 1.10,2013-01-08 14:56:00,
2013-01-08 10:11:00,42.3,35.0,30.38,SSW,212,9.0,21.0,75,0.00,,,0.00,weatherlink.com 1.10,2013-01-08 15:11:00,
2013-01-08 10:26:00,42.5,35.0,30.37,South,176,11.0,23.0,74,0.00,,,0.00,weatherlink.com 1.10,2013-01-08 15:26:00,
2013-01-08 10:41:00,42.7,35.0,30.36,SSW,202,17.0,22.0,73,0.00,,,0.00,weatherlink.com 1.10,2013-01-08 15:41:00,
2013-01-08 10:56:00,42.9,35.0,30.36,South,173,24.0,24.0,73,0.00,,,0.00,weatherlink.com 1.10,2013-01-08 15:56:00,
2013-01-08 11:11:00,43.0,35.0,30.35,SSW,204,17.0,26.0,73,0.00,,,0.00,weatherlink.com 1.10,2013-01-08 16:11:00,
2013-01-08 11:26:00,43.1,35.0,30.34,SSE,156,16.0,28.0,74,0.00,,,0.00,weatherlink.com 1.10,2013-01-08 16:26:00,
2013-01-08 11:41:00,43.2,35.0,30.33,SSW,198,15.0,21.0,74,0.00,,,0.00,weatherlink.com 1.10,2013-01-08 16:41:00,
2013-01-08 11:56:00,43.2,35.0,30.32,SSW,194,15.0,24.0,74,0.00,,,0.00,weatherlink.com 1.10,2013-01-08 16:56:00,
2013-01-08 12:11:00,43.4,35.0,30.31,SE,134,9.0,26.0,73,0.00,,,0.00,weatherlink.com 1.10,2013-01-08 17:11:00,
2013-01-08 12:26:00,43.4,35.0,30.30,SSE,163,14.0,27.0,73,0.00,,,0.00,weatherlink.com 1.10,2013-01-08 17:26:00,
2013-01-08 12:42:00,43.6,35.0,30.30,SE,141,13.0,22.0,73,0.00,,,0.00,weatherlink.com 1.10,2013-01-08 17:42:00,
2013-01-08 12:57:00,43.7,36.0,30.29,South,188,12.0,23.0,74,0.00,,,0.00,weatherlink.com 1.10,2013-01-08 17:57:00,
2013-01-08 13:12:00,43.1,36.0,30.29,South,191,10.0,20.0,75,0.00,,,0.00,weatherlink.com 1.10,2013-01-08 18:12:00,
2013-01-08 13:27:00,43.5,36.0,30.30,SE,142,9.0,22.0,75,0.00,,,0.00,weatherlink.com 1.10,2013-01-08 18:27:00,
2013-01-08 13:42:00,43.1,36.0,30.30,SSE,165,18.0,22.0,76,0.00,,,0.00,weatherlink.com 1.10,2013-01-08 18:42:00,
2013-01-08 13:57:00,42.9,36.0,30.30,South,171,15.0,24.0,77,0.00,,,0.00,weatherlink.com 1.10,2013-01-08 18:57:00,
2013-01-08 14:12:00,42.6,37.0,30.30,South,179,14.0,19.0,79,0.00,,,0.00,weatherlink.com 1.10,2013-01-08 19:12:00,
2013-01-08 14:27:00,42.5,37.0,30.30,South,179,13.0,21.0,80,0.00,,,0.00,weatherlink.com 1.10,2013-01-08 19:27:00,
2013-01-08 14:42:00,42.2,36.0,30.31,South,187,11.0,17.0,80,0.00,,,0.00,weatherlink.com 1.10,2013-01-08 19:42:00,
2013-01-08 14:57:00,42.0,36.0,30.30,SSE,148,18.0,18.0,80,0.00,,,0.00,weatherlink.com 1.10,2013-01-08 19:57:00,
2013-01-08 15:12:00,41.7,36.0,30.30,South,190,16.0,20.0,81,0.00,,,0.00,weatherlink.com 1.10,2013-01-08 20:12:00,
2013-01-08 15:27:00,41.6,36.0,30.30,SSE,166,9.0,19.0,80,0.00,,,0.00,weatherlink.com 1.10,2013-01-08 20:27:00,
2013-01-08 15:42:00,41.3,36.0,30.30,South,182,13.0,14.0,81,0.00,,,0.00,weatherlink.com 1.10,2013-01-08 20:42:00,
2013-01-08 15:57:00,41.4,36.0,30.30,SE,146,15.0,17.0,80,0.00,,,0.00,weatherlink.com 1.10,2013-01-08 20:57:00,
2013-01-08 16:12:00,40.9,36.0,30.30,South,185,13.0,17.0,81,0.00,,,0.00,weatherlink.com 1.10,2013-01-08 21:12:00,
2013-01-08 16:27:00,40.5,36.0,30.31,SE,144,5.0,14.0,83,0.00,,,0.00,weatherlink.com 1.10,2013-01-08 21:27:00,
2013-01-08 16:42:00,40.0,35.0,30.31,South,176,7.0,12.0,83,0.00,,,0.00,weatherlink.com 1.10,2013-01-08 21:42:00,
2013-01-08 16:57:00,39.5,35.0,30.31,SSE,158,4.0,11.0,84,0.00,,,0.00,weatherlink.com 1.10,2013-01-08 21:57:00,
2013-01-08 17:12:00,38.7,35.0,30.33,SW,215,2.0,6.0,86,0.00,,,0.00,weatherlink.com 1.10,2013-01-08 22:12:00,
2013-01-08 17:27:00,38.3,35.0,30.33,SSE,166,3.0,5.0,87,0.00,,,0.00,weatherlink.com 1.10,2013-01-08 22:27:00,
2013-01-08 17:42:00,38.0,35.0,30.33,SSW,194,6.0,8.0,89,0.00,,,0.00,weatherlink.com 1.10,2013-01-08 22:42:00,
2013-01-08 18:12:00,38.3,35.0,30.35,SSE,151,5.0,9.0,89,0.00,,,0.00,weatherlink.com 1.10,2013-01-08 23:12:00,
2013-01-08 18:27:00,38.7,36.0,30.35,SE,135,7.0,10.0,89,0.00,,,0.00,weatherlink.com 1.10,2013-01-08 23:27:00,
2013-01-08 18:42:00,38.7,36.0,30.35,SSE,165,6.0,9.0,88,0.00,,,0.00,weatherlink.com 1.10,2013-01-08 23:42:00,
2013-01-08 18:57:00,38.2,35.0,30.35,SSE,165,5.0,9.0,89,0.00,,,0.00,weatherlink.com 1.10,2013-01-08 23:57:00,
2013-01-08 19:12:00,38.0,35.0,30.36,SE,146,3.0,8.0,90,0.00,,,0.00,weatherlink.com 1.10,2013-01-09 00:12:00,
2013-01-08 19:27:00,38.2,36.0,30.35,South,188,6.0,9.0,90,0.00,,,0.00,weatherlink.com 1.10,2013-01-09 00:27:00,
2013-01-08 19:42:00,38.1,36.0,30.36,SE,134,6.0,9.0,90,0.00,,,0.00,weatherlink.com 1.10,2013-01-09 00:42:00,
2013-01-08 19:57:00,38.4,36.0,30.36,South,172,6.0,10.0,91,0.00,,,0.00,weatherlink.com 1.10,2013-01-09 00:57:00,
2013-01-08 20:12:00,38.3,36.0,30.35,SE,127,6.0,10.0,91,0.00,,,0.00,weatherlink.com 1.10,2013-01-09 01:12:00,
2013-01-08 20:27:00,38.1,36.0,30.36,South,191,4.0,7.0,91,0.00,,,0.00,weatherlink.com 1.10,2013-01-09 01:27:00,
2013-01-08 20:42:00,37.8,36.0,30.36,South,177,3.0,8.0,92,0.00,,,0.00,weatherlink.com 1.10,2013-01-09 01:42:00,
2013-01-08 20:57:00,37.7,36.0,30.36,South,171,3.0,6.0,92,0.00,,,0.00,weatherlink.com 1.10,2013-01-09 01:57:00,
2013-01-08 21:12:00,37.1,35.0,30.36,SE,134,4.0,6.0,92,0.00,,,0.00,weatherlink.com 1.10,2013-01-09 02:12:00,
2013-01-08 21:27:00,37.1,35.0,30.36,SSE,167,3.0,7.0,93,0.00,,,0.00,weatherlink.com 1.10,2013-01-09 02:27:00,
2013-01-08 21:42:00,37.3,36.0,30.36,SSE,165,4.0,8.0,93,0.00,,,0.00,weatherlink.com 1.10,2013-01-09 02:42:00,
2013-01-08 21:57:00,36.9,35.0,30.36,ESE,110,3.0,5.0,93,0.00,,,0.00,weatherlink.com 1.10,2013-01-09 02:57:00,
2013-01-08 22:27:00,36.4,35.0,30.36,SSE,156,1.0,4.0,94,0.00,,,0.00,weatherlink.com 1.10,2013-01-09 03:27:00,
2013-01-08 22:42:00,36.1,35.0,30.36,East,81,0.0,1.0,94,0.00,,,0.00,weatherlink.com 1.10,2013-01-09 03:42:00,
2013-01-08 22:57:00,35.7,34.0,30.36,ESE,122,0.0,0.0,94,0.00,,,0.00,weatherlink.com 1.10,2013-01-09 03:57:00,
2013-01-08 23:27:00,36.6,35.0,30.36,SSE,162,2.0,5.0,94,0.00,,,0.00,weatherlink.com 1.10,2013-01-09 04:27:00,
2013-01-08 23:42:00,37.3,36.0,30.36,SSE,152,2.0,5.0,93,0.00,,,0.00,weatherlink.com 1.10,2013-01-09 04:42:00,
2013-01-08 23:57:00,37.2,35.0,30.37,South,174,3.0,5.0,93,0.00,,,0.00,weatherlink.com 1.10,2013-01-09 04:57:00,